Home   Weather   Ephrata   Past weeks
Flag for USA

Past Weather in Ephrata, Washington, USA — Yesterday and Last 2 Weeks

Now
56 °F

Clear.


Feels Like: 52 °F
Forecast: 59 / 37 °F
Wind: 18 mph from Northwest

Location: Ephrata Municipal Airport

Current Time: Oct 22, 2019 at 8:13:18 pm

Latest Report: Oct 22, 2019 at 6:53 pm


Visibility: 10 mi

Pressure: 30.21 "Hg

Humidity: 32%

Dew Point: 26 °F

Location of EphrataLocation

Past Weather in Ephrata — Graph

°F

Ephrata Temperature Yesterday

Maximum temperature yesterday: 49 °F (at 4:53 pm)
Minimum temperature yesterday: 34 °F (at 1:53 am)
Average temperature yesterday: 43 °F

High & Low Weather Summary for the Past Weeks

 TemperatureHumidityPressure
High68 °F (Oct 22, 12:53 pm)100% (Oct 22, 2:53 am)30.55 "Hg (Oct 22, 2:53 am)
Low26 °F (Oct 10, 5:53 am)17% (Oct 9, 4:53 pm)29.54 "Hg (Oct 19, 8:00 am)
Average47 °F60%29.99 "Hg
* Reported Oct 7 6:53 pm — Oct 22 6:53 pm, Ephrata. Weather by CustomWeather, © 2019

Note: Actual official high and low records may vary slightly from our data, if they occured in-between our weather recording intervals... More about our weather records

Advertising

Ephrata Weather History for the Previous 24 Hours

Scroll right to see more
 ConditionsComfort  
Time TempWeatherWind HumidityBarometerVisibility
6:53 pm
Tue, Oct 22
56 °FClear.18 mph32%30.21 "Hg10 mi
5:53 pm59 °FSunny.18 mph28%30.20 "Hg10 mi
4:53 pm62 °FSunny.26 mph23%30.18 "Hg10 mi
3:53 pm64 °FSunny.28 mph22%30.17 "Hg10 mi
2:53 pm65 °FSunny.21 mph22%30.16 "Hg9 mi
1:53 pm67 °FSunny.20 mph25%30.16 "Hg10 mi
12:53 pm68 °FSunny.16 mph27%30.14 "Hg10 mi
11:53 am66 °FSunny.16 mph32%30.16 "Hg10 mi
10:53 am64 °FSunny.15 mph43%30.14 "Hg10 mi
9:53 am57 °FSunny.5 mph81%30.12 "Hg10 mi
8:53 am49 °FSunny.3 mph90%30.11 "Hg10 mi
7:53 am41 °FFog.3 mph100%30.08 "Hg4 mi
6:53 am44 °FPassing clouds.No wind96%30.06 "Hg10 mi
6:33 am43 °FFog.6 mph100%30.03 "Hg5 mi
6:12 am41 °FFog.5 mph100%30.04 "Hg0 mi
6:04 am42 °FFog.5 mph96%30.04 "Hg1 mi
4:53 am44 °FFog.3 mph96%30.07 "Hg0 mi
3:53 am44 °FFog.7 mph96%30.07 "Hg0 mi
3:25 am43 °FFog.7 mph93%30.06 "Hg0 mi
3:13 am43 °FFog.No wind97%30.07 "Hg1 mi
2:53 am43 °FFog.No wind100%30.09 "Hg0 mi
1:53 am43 °FPassing clouds.3 mph97%30.11 "Hg10 mi
11:53 pm
Mon, Oct 21
45 °FMostly cloudy.No wind93%30.13 "Hg10 mi
10:53 pm45 °FClear.5 mph93%30.14 "Hg10 mi
9:53 pm47 °FPassing clouds.3 mph93%30.14 "Hg10 mi
8:53 pm48 °FClear.5 mph86%30.14 "Hg10 mi
Weather by CustomWeather, © 2019

See weather overview